{"data":{"norad_id":66297,"epoch":"2026-09-19T04:57:58.015008Z","epoch_age_seconds":243452,"freshness":"STALE","line1":"1 66297U 25248E   26262.20692147  .00003375  00000+0  15812-3 0  9997","line2":"2 66297  45.4069 333.4481 0010234 214.1892 145.8337 15.21841274 48876","mean_motion":15.21841274,"eccentricity":0.0010234,"inclination_deg":45.4069,"raan_deg":333.4481,"arg_perigee_deg":214.1892,"mean_anomaly_deg":145.8337,"bstar":0.00015812,"rev_number":4887,"period_min":94.622220109401,"perigee_km":493.24750341175,"apogee_km":507.32626141427,"semimajor_km":6878.423882413,"source":"CELESTRAK","updated_at":"2026-09-21T09:00:15.898455Z"}}